Location: *
(45.5667°S, 177.5167°W)
Time: 05:43:19
(UTC+00:00)

Cosmos 2221 - Pass Details

Date: 29 May 2022
Orbit: 590 x 615 km, 82.5° (Epoch: 24 June)

Event Time Altitude Azimuth Distance (km) Brightness Sun altitude
Rises 05:26:41 0° 196° (SSW) 2,929 6.0 -11.8°
Reaches altitude 10° 05:29:02 10° 203° (SSW) 2,016 5.2 -12.2°
Maximum altitude 05:33:13 40° 272° (W) 925 4.1 -12.9°
Drops below altitude 10° 05:37:20 10° 341° (NNW) 1,986 5.7 -13.6°
Sets 05:39:38 0° 348° (NNW) 2,880 6.4 -13.9°
